Regional Weather Roundup
Issued by NWS Nashville, TN

Home | Current Version | Previous Version | Text Only | Print | Product List | Glossary On
Versions: 1 2 3 4 5 6 7 8 9 10 11 12 13 14 15 16 17 18 19 20 21 22 23 24 25 26 27
000
ASUS44 KOHX 200910
RWROHX
MIDDLE TENNESSEE HOURLY WEATHER ROUNDUP
NATIONAL WEATHER SERVICE NASHVILLE TN
300 AM CST TUE FEB 20 2018

NOTE: "FAIR" INDICATES FEW OR NO CLOUDS BELOW 12,000 FEET WITH
NO SIGNIFICANT WEATHER AND/OR OBSTRUCTIONS TO VISIBILITY.

* THESE REPORTS ARE NOT UNDER NWS QUALITY CONTROL AND MAY NOT
  REPORT WEATHER SUCH AS PRECIPITATION AND FOG.


TNZ005>011-023>034-057-059-062>066-078-080-201000
...NORTHERN MIDDLE TENNESSEE...

CITY           SKY/WX    TMP DP  RH WIND       PRES   REMARKS
CLARKSVILLE      N/A     69  57  65 S20G33    30.11S
CROSSVILLE       N/A     60  55  83 S9        30.29S
GALLATIN       CLEAR     66  57  72 S9        30.19F
NASHVILLE        N/A     67  57  70 S14       30.17S
PORTLAND       CLEAR     64  57  77 S13G20    30.15S
SMYRNA           N/A     67  58  72 S14       30.18F
SPARTA         PTCLDY    63  57  82 S8        30.23S
SPRINGFIELD    CLOUDY    68  57  68 S14G24    30.12S
WEST NASHVILLE CLEAR     68  57  68 S10G20    30.15S
$$
TNZ056-058-060-061-075>077-079-093>097-201000
...SOUTHERN MIDDLE TENNESSEE...

CITY           SKY/WX    TMP DP  RH WIND       PRES   REMARKS
COLUMBIA       PTCLDY    64  63  94 S15       30.16F
FAYETTEVILLE   PTCLDY    63  59  88 S10       30.22F
MCMINNVILLE    PTCLDY    66  57  72 S10G16    30.23S
PULASKI        CLOUDY    63  57  82 S8        30.20F
SHELBYVILLE    MOCLDY    66  57  72 S8G17     30.22S
TULLAHOMA      CLEAR     64  57  77 S9G16     30.22F
WINCHESTER     CLEAR     63  57  82 S13       30.25S
$$


...KEY TO REMARKS...
VSB - VISIBILITY IN MILES
WCI - WIND CHILL INDEX
HX  - HEAT INDEX





USA.gov is the U.S. government's official web portal to all federal, state and local government web resources and services.